Location: Aldenham
(51.6667°N, 0.3500°W)
Time: 00:52:19
(UTC+00:00)

Landsat 7 - Pass Details

Date: 18 November 2025
Orbit: 680 x 682 km, 97.9° (Epoch: 13 December)

Event Time Altitude Azimuth Distance (km) Brightness Sun altitude
Rises 16:48:28 0° 144° (SE) 3,035 7.0 -6.5°
Reaches altitude 10° 16:50:46 10° 138° (SE) 2,123 6.1 -6.8°
Maximum altitude 16:55:09 43° 67° (ENE) 962 4.1 -7.5°
Drops below altitude 10° 16:59:33 10° 357° (N) 2,137 6.1 -8.1°
Sets 17:01:53 0° 351° (N) 3,057 7.0 -8.4°
